Wind_Speed
9 9 9 9 9 10 10 10 11 11 12 12 12 13 13 13 13 13 14 14 14 14 14 14 14 15 15 15 15 14 14 14 14 14 14 15 15 15 15 14 13 12 11 11 10 11 11 12 12 13 13 13 13 13 13 13 13 13 13 13 13 10 6 6 8 10 14 16 16 16 17 22 24 24 26 27 23 20 17 13 13 16 18 18 16 16 19 20
11 11 11 11 11 12 12 12 13 13 14 14 14 15 15 15 15 16 16 16 16 16 16 16 16 17 17 17 16 16 16 16 16 16 16 16 16 15 14 13 12 12 12 13 13 13 13 13 13 13 14 14 14 13 13 14 14 15 15 15 15 12 8 10 11 14 18 21 20 19 21 24 24 24 25 27 26 23 20 17 14 16 17 18 18 18 22 23
12 13 13 13 13 14 14 15 15 16 16 16 16 17 17 17 17 17 17 17 17 18 18 18 18 18 18 18 18 18 16 16 17 17 17 15 13 12 12 12 12 13 15 15 14 14 13 13 13 13 14 15 16 15 13 15 16 16 17 17 16 14 12 13 13 15 19 23 24 23 23 24 23 24 26 28 28 27 23 18 16 17 17 16 16 19 24 26
14 14 15 15 16 16 16 17 17 18 18 18 18 18 18 18 18 18 18 18 18 18 19 19 18 19 19 19 19 18 18 18 17 16 15 13 12 13 14 14 16 16 17 16 15 14 14 14 14 14 15 14 16 18 16 16 17 17 19 19 17 16 17 17 15 17 21 24 26 25 25 25 24 24 27 29 30 29 25 20 18 19 20 20 21 22 24 27
16 16 17 17 17 18 18 18 19 19 19 18 18 18 18 18 18 18 18 18 18 19 19 19 19 19 19 20 19 19 18 16 15 14 15 16 16 17 17 17 17 17 17 17 15 15 14 14 15 15 16 15 15 18 18 18 19 19 20 20 20 20 21 21 17 20 24 26 27 26 26 26 26 25 25 28 31 30 27 24 20 19 21 24 26 25 25 27
18 18 19 19 19 19 19 19 19 19 19 19 19 19 19 19 18 18 18 18 19 19 19 19 19 20 20 20 19 19 17 13 13 16 17 19 18 17 17 16 16 16 16 15 15 15 15 15 16 16 17 17 16 17 17 16 18 22 22 22 22 21 22 22 22 24 26 27 27 27 27 26 26 26 24 26 30 29 28 27 22 18 20 23 25 26 25 26
20 20 20 20 20 20 20 20 20 20 20 20 19 19 19 19 19 19 19 19 19 19 19 19 19 20 20 20 19 19 18 14 13 17 17 18 17 16 15 14 14 14 14 15 15 16 16 17 17 17 19 19 18 15 14 14 16 24 27 25 24 22 22 24 26 27 26 26 27 27 27 27 26 26 25 26 26 26 25 25 22 19 19 20 23 26 26 25
22 22 22 21 21 21 21 21 21 21 20 20 20 19 19 19 19 19 19 19 19 20 20 20 20 20 21 21 21 21 21 17 13 16 17 17 16 16 15 15 15 15 15 16 17 18 18 18 18 19 20 20 19 15 17 19 20 25 28 26 26 26 25 25 27 28 28 28 28 28 28 26 24 25 28 27 25 24 24 25 24 21 20 21 23 25 26 27
23 23 23 23 22 22 22 22 21 21 21 21 20 20 20 20 20 20 20 20 20 20 20 21 21 21 22 22 23 23 21 18 15 15 17 17 17 18 18 19 19 19 18 18 18 19 19 18 19 20 21 20 20 20 21 23 24 26 27 27 29 29 27 27 28 29 29 29 29 29 28 25 23 26 30 27 25 26 27 27 27 25 23 22 24 25 26 27
24 24 24 23 23 23 22 22 22 22 22 22 21 21 21 21 21 20 20 20 20 21 21 22 22 22 23 23 25 25 21 19 18 18 18 19 20 20 21 21 21 21 21 21 20 20 19 19 21 21 22 22 21 22 22 24 26 27 27 27 28 28 29 29 30 30 28 28 27 25 25 25 24 26 29 26 25 28 29 29 28 29 26 22 23 24 24 26
25 24 24 24 24 23 23 23 23 23 22 22 22 22 22 21 21 21 21 21 21 22 22 23 23 24 24 24 26 25 22 21 20 20 20 20 20 21 21 21 22 22 22 23 21 21 21 21 22 21 21 22 23 22 23 25 26 25 26 27 27 28 30 30 30 29 25 24 24 23 24 25 24 26 29 26 25 27 29 31 31 31 32 28 25 23 23 25
25 25 25 24 24 23 23 23 23 23 22 22 22 22 22 22 23 23 23 23 23 24 24 24 25 25 26 26 26 24 23 23 22 22 21 21 21 21 22 22 22 22 23 23 23 22 21 21 21 20 20 22 23 22 23 24 25 25 26 29 30 30 31 29 27 24 21 20 22 22 22 24 26 27 27 23 22 23 25 29 31 30 29 28 27 24 24 25
25 25 24 24 24 24 23 23 23 24 24 24 24 24 24 24 25 25 25 25 25 25 25 25 26 27 28 28 26 25 24 24 23 22 21 21 22 22 22 22 22 22 22 22 22 21 19 19 20 19 19 20 20 21 22 23 24 27 28 29 29 29 29 25 20 21 19 17 18 19 21 25 29 28 25 20 20 23 25 28 26 23 22 23 24 23 22 22
25 25 25 25 25 25 25 25 25 26 26 26 26 26 27 27 27 27 27 26 26 26 26 26 27 27 28 28 27 27 26 25 25 23 22 22 22 22 22 21 20 20 20 20 20 19 18 18 17 17 17 18 19 21 23 23 24 27 27 25 24 24 23 19 15 19 18 17 18 19 21 25 29 29 26 23 21 22 24 24 21 20 21 22 22 22 21 20
26 26 26 26 26 26 26 27 27 27 28 28 28 28 28 28 28 28 28 27 27 27 27 27 27 28 29 28 27 28 27 26 25 23 22 22 21 21 20 19 19 19 20 20 19 19 18 17 16 17 17 18 20 22 24 23 23 24 23 22 20 19 19 16 13 15 17 19 20 20 20 22 27 28 24 22 23 23 23 23 22 21 22 23 24 23 21 20
28 27 27 27 27 28 28 28 28 29 29 29 29 29 29 29 29 29 28 28 27 26 27 26 26 27 28 27 26 26 26 26 24 23 23 23 23 23 21 21 22 21 20 19 19 18 17 18 19 19 19 19 21 23 21 20 21 21 19 21 19 17 17 14 9 11 17 21 22 24 24 23 27 27 23 23 26 27 28 28 26 24 24 24 22 20 20 21
29 29 28 28 28 28 29 29 29 29 29 29 29 29 29 29 29 28 28 27 26 25 26 25 25 27 27 26 26 26 25 25 24 23 22 22 22 23 22 22 20 18 18 18 20 20 20 23 23 21 19 20 21 20 17 16 18 17 16 19 19 17 18 16 14 17 21 23 23 25 26 25 26 26 26 27 28 28 29 29 28 27 24 19 14 15 20 25
29 28 27 27 27 28 28 28 28 28 28 28 28 28 28 28 27 27 27 26 25 25 25 24 24 25 25 23 23 24 23 23 22 20 19 20 21 21 20 19 18 19 21 22 24 25 24 26 25 21 20 22 23 21 20 18 18 17 17 19 21 20 21 23 25 27 26 24 24 24 25 25 25 27 28 27 27 26 25 25 23 20 16 12 11 15 22 26
27 26 25 26 26 27 27 27 27 27 27 27 27 27 27 27 27 27 27 26 26 25 24 24 23 22 22 22 23 24 25 25 24 23 23 24 24 24 22 22 23 25 27 27 26 26 26 26 26 23 22 24 23 22 22 21 18 17 18 20 22 23 25 28 29 27 25 24 24 25 27 28 27 27 28 28 26 21 17 13 13 12 11 13 18 22 26 28
26 25 25 26 26 27 27 27 27 27 26 26 27 27 28 28 27 28 28 28 26 25 24 25 25 25 25 27 27 26 28 28 28 28 28 28 28 28 28 28 29 30 30 28 26 27 26 25 25 24 23 23 21 19 19 20 18 18 20 21 23 26 27 29 27 23 21 23 24 25 26 28 28 29 30 27 21 13 9 9 11 13 15 21 27 30 33 34
26 26 26 26 27 28 27 27 27 27 27 27 27 27 28 28 27 28 30 29 27 27 27 25 27 28 26 28 28 27 28 29 30 30 29 29 30 30 32 31 30 30 28 24 23 24 25 25 25 24 22 21 19 16 18 21 22 23 24 24 25 27 28 28 23 17 18 22 23 23 27 28 29 32 29 19 11 8 9 14 18 19 23 30 33 33 33 33
27 26 27 27 27 28 27 28 28 27 27 27 27 27 28 28 27 29 30 31 29 27 28 26 26 29 27 28 30 27 27 28 29 30 29 30 31 31 32 31 30 29 24 21 22 23 24 25 23 21 18 16 16 15 18 23 24 25 27 27 26 24 24 21 15 12 13 17 22 24 28 28 28 28 16 6 7 9 12 20 23 24 30 35 35 32 28 25
27 27 27 27 27 27 27 27 28 27 27 27 27 26 26 27 27 28 30 33 32 28 29 29 28 29 28 30 31 28 29 29 29 32 30 31 33 30 31 31 28 25 21 21 24 23 24 20 15 14 17 15 14 15 19 23 24 23 22 22 22 20 17 15 12 12 14 18 23 25 26 27 25 18 3 1 8 10 18 24 26 29 33 34 33 29 22 17
27 26 27 27 27 27 27 27 27 26 27 27 26 26 26 26 26 28 29 33 36 32 30 30 30 30 29 30 30 28 30 30 31 35 32 32 33 31 30 30 27 24 22 23 24 24 24 19 13 14 17 17 18 20 20 23 23 20 17 18 20 19 16 15 16 18 20 22 21 19 21 23 17 9 4 7 11 16 26 28 25 29 31 30 30 25 17 12
26 26 26 27 27 27 27 28 27 26 27 26 25 25 25 26 27 28 29 31 36 34 31 31 30 28 28 29 28 28 31 32 33 34 33 31 32 31 30 28 26 25 22 20 21 22 23 21 18 17 17 18 21 19 15 17 20 18 16 16 17 17 16 17 18 20 21 19 16 13 11 12 12 13 17 20 18 22 30 29 25 26 29 29 26 18 11 7
26 26 27 27 28 28 28 28 26 25 27 27 25 25 25 26 26 27 26 27 32 31 26 23 23 23 22 22 25 26 28 31 32 31 30 29 29 29 27 26 25 23 19 17 19 22 22 21 20 16 13 13 14 13 9 12 17 17 15 14 14 16 17 19 19 19 18 16 17 14 10 14 19 21 23 21 16 24 31 28 25 25 28 28 22 14 12 8
27 28 28 29 29 29 29 29 27 27 29 27 25 25 25 25 24 24 21 18 20 19 14 13 14 15 14 13 16 19 18 19 21 22 22 22 22 22 21 21 21 17 17 17 19 20 19 17 14 11 9 9 11 11 10 12 15 16 15 15 16 18 19 19 20 20 21 24 25 20 15 19 24 23 22 14 12 24 29 25 24 27 28 26 18 13 12 9
29 30 30 30 30 30 30 30 29 29 29 27 25 25 25 23 22 19 12 6 7 6 6 10 11 10 11 10 9 9 11 10 8 9 11 12 13 14 14 16 16 14 13 14 16 15 14 13 11 10 11 12 14 13 12 12 14 16 16 17 19 19 18 20 21 24 25 22 22 16 9 13 20 24 19 8 15 21 24 22 21 24 26 23 17 15 12 11
29 29 29 30 30 30 31 31 31 30 29 28 27 26 24 22 19 13 6 4 4 3 5 8 9 9 12 13 9 7 9 9 7 7 8 8 8 8 8 9 10 12 11 11 13 12 13 14 12 14 15 15 15 14 11 12 13 16 18 18 19 18 19 20 21 23 18 13 18 19 12 12 14 19 11 10 15 19 23 23 19 21 24 20 17 16 13 13
30 30 29 29 28 28 29 31 32 31 29 29 27 24 22 19 16 10 7 7 6 5 8 9 10 11 12 14 11 9 11 10 9 10 9 9 8 8 8 7 7 9 10 12 14 14 15 16 15 16 16 14 15 13 12 13 15 18 19 19 20 20 19 18 17 16 8 7 19 21 16 17 8 9 7 10 10 14 20 23 21 22 23 20 18 15 14 16
31 30 30 30 28 25 26 27 29 30 28 27 24 21 20 17 15 10 6 9 10 9 10 11 12 14 14 15 13 11 11 10 9 11 11 11 11 9 8 8 9 9 11 14 16 14 14 16 15 14 13 13 15 16 16 18 18 19 18 18 18 15 12 10 9 7 2 7 16 14 10 18 13 4 5 6 8 14 19 21 22 23 23 21 20 17 18 19
27 28 28 27 25 24 23 21 22 23 22 22 20 19 17 14 17 17 9 6 7 9 12 13 13 16 17 16 14 12 10 9 9 11 11 11 11 11 10 10 10 10 10 12 12 13 16 18 17 17 19 21 21 20 21 22 21 20 19 16 12 7 4 4 4 3 5 7 8 5 3 13 19 17 15 15 18 21 23 24 25 24 22 21 20 20 23 25
26 28 29 28 27 27 26 21 19 18 18 18 18 17 17 12 11 17 17 12 7 6 9 12 13 16 18 15 12 12 11 9 10 11 10 10 11 12 12 13 14 13 13 13 14 17 19 20 21 23 25 24 24 23 23 22 18 14 14 11 6 2 1 3 3 3 6 7 5 6 5 8 15 18 17 21 25 27 27 26 26 26 24 21 23 28 30 31
28 29 29 29 26 23 22 18 17 17 17 18 19 18 19 15 8 11 18 20 17 11 8 8 11 12 12 12 11 11 10 8 10 11 11 12 14 17 18 19 20 20 19 19 18 16 15 16 18 18 17 16 17 16 16 16 15 12 13 12 10 10 7 5 5 3 4 8 12 13 8 5 7 8 7 12 18 23 25 25 25 27 27 27 31 34 32 31
27 25 23 22 18 16 16 15 16 17 18 20 21 22 24 23 18 17 18 19 20 19 14 11 11 11 10 11 12 12 11 10 12 15 17 20 22 24 24 23 22 21 20 16 11 10 10 13 16 15 14 15 15 12 12 14 14 13 15 15 17 19 17 13 12 14 14 12 14 17 18 19 21 21 22 24 25 28 29 29 29 30 31 33 34 34 32 31
24 22 20 19 16 15 17 18 19 19 22 23 24 29 33 30 25 21 17 18 20 20 19 16 15 15 15 16 17 18 19 18 19 21 23 26 28 29 28 23 21 20 18 17 13 10 10 12 14 13 11 13 14 13 13 14 11 9 12 16 18 19 19 17 16 20 19 11 11 19 23 26 26 24 28 32 30 30 31 32 33 33 33 34 33 33 33 32
24 23 22 20 19 19 21 22 22 23 25 27 30 35 36 35 31 22 16 17 19 20 20 18 17 15 13 13 16 17 18 18 19 20 22 21 19 20 20 18 20 21 20 21 20 17 17 17 17 16 13 13 15 15 17 18 16 15 17 19 19 14 15 17 12 9 10 6 9 19 22 23 19 15 19 24 22 24 26 26 27 29 30 30 31 31 30 29
26 25 24 23 21 22 23 24 25 25 25 29 36 39 36 36 34 28 22 19 17 20 21 20 18 15 11 11 12 12 13 14 13 13 16 15 12 11 12 14 19 22 23 23 21 18 19 19 21 24 22 17 17 19 19 18 18 20 21 21 20 14 12 15 10 5 6 5 5 13 19 22 23 20 19 19 18 18 19 20 21 23 24 24 25 24 24 26
31 29 27 24 22 22 23 23 25 26 28 33 39 40 38 38 35 31 31 28 23 23 24 23 21 19 18 17 15 12 12 13 11 11 11 12 12 12 12 14 18 20 22 22 21 20 19 15 16 22 22 16 16 19 20 19 17 18 21 23 25 22 18 19 17 11 9 6 5 8 11 16 25 28 27 25 20 14 13 15 15 17 19 20 20 21 22 24
31 29 27 23 22 22 23 23 25 28 32 38 42 41 38 37 36 34 34 33 30 28 28 28 27 26 25 23 21 17 15 15 16 17 17 17 16 14 13 14 16 18 18 19 20 21 20 15 16 21 21 20 20 20 21 20 17 17 20 22 23 24 23 21 21 23 18 7 3 5 6 13 23 26 27 26 20 16 19 22 22 22 24 24 23 24 26 28
27 28 27 23 22 23 23 24 28 31 34 38 41 41 37 35 35 34 32 31 31 30 31 31 30 30 30 29 29 26 23 24 26 27 26 27 25 22 20 20 19 18 17 17 18 19 17 16 18 21 23 26 28 25 21 18 16 17 18 17 18 20 21 15 13 23 26 16 10 9 7 14 24 26 25 24 24 27 33 33 30 27 27 27 27 26 28 30
25 27 27 24 23 24 24 26 29 30 33 35 34 35 35 33 32 29 29 30 31 31 31 31 31 31 32 32 31 29 27 28 29 29 30 30 28 26 26 27 26 23 21 20 20 21 20 17 19 23 27 32 35 34 30 24 22 23 22 23 23 21 21 18 10 15 22 21 22 20 11 14 25 29 28 29 31 34 36 34 28 24 23 25 25 26 27 29
26 28 28 27 26 24 24 27 29 31 33 33 31 31 32 32 31 31 32 32 31 32 32 33 34 33 34 34 32 30 29 29 29 31 31 29 28 27 27 28 27 25 23 23 23 24 24 21 21 25 28 32 35 36 35 29 25 26 27 28 28 25 27 27 23 22 19 17 22 18 8 10 19 23 26 30 33 33 33 32 30 26 24 24 25 28 31 34
26 28 30 30 28 27 30 32 33 34 35 33 32 32 33 33 35 36 36 36 34 34 35 36 36 34 34 33 31 31 30 27 27 28 28 26 26 26 26 26 26 26 26 24 22 23 20 16 14 13 12 16 20 21 21 18 16 18 19 21 22 22 24 24 25 25 17 15 20 13 5 14 22 23 27 30 32 33 32 32 32 32 33 33 35 38 40 42
27 29 31 31 31 32 35 37 36 36 36 36 36 36 36 37 39 38 37 37 36 35 35 34 34 33 31 29 29 30 29 27 24 21 20 20 21 23 25 24 24 26 26 24 24 23 20 17 17 13 7 7 9 12 12 10 10 12 14 17 18 19 21 21 22 22 16 17 21 15 15 27 30 27 30 33 33 34 33 34 37 39 41 43 44 45 46 48
31 32 33 33 33 35 38 38 38 39 39 38 38 38 39 40 40 38 36 35 34 33 32 32 31 30 29 28 28 28 27 27 25 23 23 21 20 22 23 24 24 24 24 25 25 24 23 24 26 25 22 21 23 25 25 21 20 22 22 25 26 27 30 29 25 26 25 24 25 28 32 36 35 35 38 36 33 30 31 34 37 38 41 44 46 48 51 53
36 37 37 36 34 35 38 40 41 42 42 40 39 38 39 39 38 36 35 33 32 32 31 32 32 31 30 29 27 27 27 26 24 26 28 27 25 24 25 27 26 25 27 27 25 24 24 25 28 28 26 27 29 31 31 28 27 27 28 32 37 37 37 35 31 32 30 23 25 35 39 36 38 42 42 39 35 33 34 36 38 41 44 46 49 51 53 55
38 39 39 39 37 36 38 40 41 41 41 40 39 39 38 37 35 34 34 33 32 32 32 32 33 33 32 30 27 25 25 24 24 25 25 25 25 23 24 28 28 29 30 29 28 27 25 27 32 30 26 27 29 30 30 29 27 27 28 32 36 39 41 40 38 37 34 29 31 39 41 40 42 43 41 40 40 40 41 42 43 45 46 48 51 52 53 53
40 40 38 39 41 41 41 39 37 37 38 39 39 40 39 37 34 32 33 32 31 32 32 32 33 31 29 29 28 26 25 23 23 24 24 24 24 24 24 25 26 28 28 27 26 23 22 25 26 22 22 26 29 30 29 26 26 29 32 35 38 42 44 42 40 40 39 38 40 42 42 42 42 40 39 39 40 42 44 44 44 44 44 46 48 48 48 48
40 41 40 39 40 40 40 39 37 35 34 34 38 40 40 39 36 32 31 31 32 32 32 32 32 30 28 28 28 28 28 27 26 25 25 25 25 26 26 24 24 26 28 26 23 19 19 21 19 17 19 25 30 32 28 24 25 28 34 39 43 45 44 42 42 43 40 39 40 40 40 41 41 40 39 40 40 41 42 41 42 42 43 43 42 43 45 46
39 39 38 39 39 38 37 37 37 35 33 33 36 38 38 39 38 33 30 30 32 34 34 33 32 32 31 30 28 28 29 29 28 28 28 28 27 25 25 25 24 25 27 26 24 23 23 24 25 22 20 26 35 33 25 22 24 27 36 44 46 45 44 43 42 40 38 39 40 39 39 40 38 36 36 37 38 39 40 42 43 44 44 44 44 45 47 48
37 37 37 38 38 37 36 36 35 35 35 35 35 35 36 37 38 35 31 29 31 34 34 33 32 30 28 28 28 28 29 29 28 28 28 29 29 28 27 28 28 29 30 30 30 31 30 28 27 21 17 25 32 27 21 18 15 23 39 46 43 41 40 38 36 34 34 35 36 36 37 36 33 33 36 38 40 41 42 43 44 45 46 46 46 46 45 43
Wind_Direction
272 275 276 277 279 280 282 283 284 286 287 289 290 291 291 292 292 293 293 293 294 294 293 294 295 294 294 294 294 295 296 298 298 299 301 301 302 303 303 303 301 301 303 304 305 305 307 308 310 311 311 312 312 315 315 313 314 310 309 307 303 315 315 283 283 275 270 276 286 292 291 295 302 307 307 305 307 307 302 296 291 289 289 289 285 280 279 277
272 274 275 277 278 279 281 283 284 286 287 289 290 291 292 292 292 293 293 294 295 295 295 296 296 297 297 297 297 297 298 300 298 298 299 298 300 302 302 300 298 297 298 299 300 301 302 303 305 307 306 308 308 308 310 308 307 306 304 301 301 308 297 278 277 273 275 285 290 289 289 294 301 305 303 302 305 305 303 305 300 287 285 291 292 289 284 278
269 271 274 276 278 280 282 284 285 286 288 289 290 290 291 291 292 292 293 295 296 296 296 297 298 298 298 299 299 299 301 300 300 300 300 302 304 303 299 299 297 295 295 296 298 300 301 303 304 305 305 308 308 306 309 304 305 305 297 296 305 310 296 284 284 283 283 289 294 297 297 298 302 303 299 300 303 301 302 306 301 293 290 289 285 283 284 285
268 270 273 275 278 280 282 284 286 287 288 289 289 290 290 291 291 292 293 293 294 295 295 296 296 297 298 298 299 300 301 303 302 302 302 304 304 301 300 299 297 295 295 296 297 298 300 303 304 305 306 309 309 306 309 306 305 300 294 300 308 305 292 287 286 282 284 291 297 301 301 300 301 299 299 303 301 299 302 304 299 295 292 285 279 278 281 285
269 271 273 275 277 279 282 283 285 286 287 288 288 289 289 289 290 290 291 291 292 292 293 294 295 296 296 296 298 299 303 307 306 304 303 301 300 301 301 298 296 296 295 295 297 298 300 301 302 304 303 305 305 304 307 308 305 297 296 304 308 304 299 298 293 285 290 297 300 302 302 301 301 299 302 303 299 299 304 304 300 291 285 282 281 281 280 282
271 273 274 276 278 279 280 281 283 284 284 285 285 285 286 286 287 287 287 288 289 289 290 291 292 294 294 294 296 297 298 300 302 300 297 296 299 300 298 297 296 295 295 297 298 299 301 300 300 301 299 299 301 302 304 304 299 295 298 303 303 301 297 297 295 294 298 300 301 303 303 302 302 302 302 297 296 303 308 308 306 294 282 281 282 282 281 281
272 273 275 275 277 278 279 280 281 282 282 283 283 283 283 283 284 285 285 286 287 288 289 290 291 292 292 293 293 293 291 291 295 294 290 292 296 297 296 296 294 294 296 297 298 300 299 299 300 298 296 298 302 303 296 288 280 287 298 303 301 296 292 294 295 298 302 301 304 305 303 304 305 304 299 297 302 309 309 306 307 302 292 285 283 284 284 283
272 273 274 274 276 277 278 280 280 280 281 281 282 282 282 284 284 285 286 287 288 289 290 291 292 292 292 293 292 291 291 294 293 288 288 291 292 293 293 292 290 291 291 291 294 295 295 297 297 294 294 298 300 293 284 285 281 285 298 305 303 301 302 302 301 303 306 307 308 305 304 307 309 306 302 305 311 309 304 302 304 302 298 293 289 287 288 288
272 273 274 275 276 278 279 279 280 281 281 281 282 282 283 284 284 286 287 288 289 290 291 291 292 293 292 293 292 290 292 297 295 287 288 289 288 288 288 288 287 287 288 288 289 289 292 293 290 289 292 296 294 288 286 287 286 290 298 301 300 302 306 304 302 305 308 308 306 303 306 308 311 309 306 313 316 309 306 306 306 304 301 299 297 295 294 294
272 274 275 276 277 278 280 280 281 282 282 283 283 284 285 285 285 286 286 287 288 289 290 290 291 292 291 292 290 290 294 297 294 289 287 286 286 285 285 285 286 287 287 286 286 285 285 283 283 288 291 292 288 288 289 286 286 293 296 295 295 300 304 303 304 308 307 304 302 303 307 308 312 310 309 320 320 312 311 309 309 309 308 305 299 296 294 294
273 274 275 277 278 279 280 281 282 282 283 284 284 284 284 284 285 284 285 286 286 287 288 289 290 289 290 290 289 292 295 293 291 289 287 285 285 284 284 284 284 286 285 285 283 280 279 278 281 284 286 287 287 290 291 288 290 294 295 294 298 302 302 304 307 309 309 307 305 307 309 311 314 313 315 323 320 315 313 311 311 313 313 311 304 298 293 292
274 275 276 278 279 280 282 282 283 283 283 284 283 284 284 284 284 285 286 286 286 287 287 288 288 288 289 288 289 293 293 291 290 288 287 286 285 284 284 284 284 284 283 283 281 280 279 278 278 278 279 281 285 288 287 288 293 296 297 298 303 305 303 309 311 311 315 310 304 304 306 313 316 316 320 322 316 311 305 305 309 311 310 307 303 299 293 291
274 275 277 278 280 281 282 282 283 283 283 283 283 283 284 284 285 286 286 286 286 286 286 286 286 286 286 287 290 291 289 289 289 288 288 285 284 283 283 283 283 283 282 280 280 281 278 276 276 277 278 280 284 284 284 289 291 294 300 301 306 308 310 320 320 318 319 296 291 297 294 307 315 315 320 318 308 303 302 307 312 312 307 301 299 297 292 289
273 274 276 277 278 279 280 281 281 281 282 282 282 282 283 283 283 283 283 284 284 284 284 284 284 284 284 286 289 288 288 288 287 287 285 283 282 282 281 281 280 279 278 277 279 279 276 275 276 278 280 283 288 287 287 290 290 296 303 302 307 308 313 331 321 312 313 290 295 299 290 304 314 315 319 315 310 308 309 314 318 315 307 300 298 299 297 295
272 273 274 275 275 276 277 277 278 278 279 279 280 281 281 281 281 281 281 281 281 281 281 281 282 282 282 284 285 286 287 286 286 286 283 283 282 281 280 277 275 274 275 276 275 274 273 273 275 280 284 286 290 289 289 292 293 300 299 296 303 296 303 327 311 300 307 299 303 302 294 302 309 314 318 317 320 319 313 312 312 308 299 295 294 297 300 295
270 271 272 273 274 274 275 275 276 276 277 277 278 278 278 279 279 278 278 278 278 278 278 278 279 279 280 283 283 282 283 283 283 283 283 284 281 279 276 272 273 272 270 271 271 270 270 273 278 282 284 287 288 288 291 293 294 300 295 290 297 292 298 317 301 293 305 304 306 304 301 303 308 315 321 323 324 321 316 313 311 303 294 292 292 295 297 283
268 269 271 272 273 273 273 274 274 275 275 276 276 276 277 277 277 277 277 276 276 276 276 277 277 278 279 281 281 280 281 282 282 282 281 281 280 278 274 268 265 261 264 269 270 268 269 275 279 279 281 283 283 283 283 282 287 298 292 284 289 294 296 294 280 287 298 298 300 300 301 302 305 311 317 322 323 319 313 307 304 300 296 298 299 293 281 267
267 269 270 271 271 271 272 272 273 274 275 275 276 276 276 276 276 276 275 275 275 276 276 277 278 278 278 280 280 280 282 281 280 279 277 277 278 277 271 260 252 258 269 271 269 269 271 276 276 276 278 278 279 277 271 277 288 289 284 281 285 287 284 282 285 292 295 291 290 289 289 291 295 304 313 321 324 317 306 300 302 303 304 306 297 281 273 270
266 267 268 268 269 269 269 271 272 273 274 275 275 276 276 276 277 277 275 274 274 275 276 275 274 274 275 277 276 278 280 279 277 275 274 275 274 271 265 257 258 267 272 271 270 271 272 273 272 273 277 279 282 281 280 293 298 284 277 276 278 280 280 286 295 300 296 288 287 287 287 292 301 311 317 323 325 314 301 306 316 318 311 299 295 291 287 286
265 266 266 266 266 267 269 270 271 272 272 273 274 275 276 276 277 277 275 274 274 274 273 273 274 273 272 271 271 274 276 274 274 273 272 271 270 268 264 262 266 269 272 274 274 274 274 271 270 275 281 285 286 280 277 283 280 272 273 271 272 277 281 289 298 301 291 285 288 290 293 302 309 315 317 321 321 301 295 325 320 310 305 303 306 300 292 288
264 264 264 264 266 267 268 269 270 270 271 272 273 274 275 277 278 278 277 276 274 274 272 271 273 273 273 271 270 272 271 270 271 270 270 269 267 267 266 266 268 269 274 277 274 275 275 271 275 285 291 290 285 271 258 261 261 262 269 273 274 278 284 292 298 294 284 284 288 292 301 308 311 315 318 319 308 285 298 310 301 299 305 307 305 295 288 287
265 264 264 264 265 266 267 268 269 270 270 271 271 272 274 275 277 278 279 277 273 273 274 272 270 273 275 272 272 273 269 268 271 270 268 267 265 265 267 268 269 274 277 271 271 274 272 275 285 294 294 285 279 270 260 264 267 268 272 276 276 282 290 295 299 293 283 282 289 300 306 308 313 319 322 318 310 299 292 292 289 294 301 301 295 289 287 286
265 265 265 264 264 265 266 267 268 269 269 269 269 270 271 273 275 276 279 280 277 273 272 273 273 274 273 270 272 274 270 268 268 267 265 263 263 264 267 269 272 277 274 268 275 274 267 278 298 300 294 286 275 266 263 268 273 276 278 277 279 287 288 285 287 277 268 278 293 305 306 305 319 332 339 14 338 304 283 284 285 290 293 291 289 291 290 282
264 264 264 263 264 265 266 266 267 268 267 266 267 268 270 272 275 277 281 284 283 279 276 278 278 276 273 270 270 269 267 264 260 260 260 261 264 265 267 271 273 273 268 267 274 271 267 275 279 275 278 276 266 265 268 271 272 274 273 273 281 288 280 272 273 272 277 289 298 305 302 299 316 331 263 292 313 284 275 280 284 287 285 284 288 292 287 275
262 262 263 264 265 265 266 265 265 266 266 264 264 267 271 275 279 282 286 289 288 286 283 281 280 279 273 268 266 260 258 258 256 258 260 260 264 266 267 270 270 270 268 264 261 262 267 273 275 272 272 267 263 267 272 271 271 272 270 270 278 283 274 267 274 284 295 301 301 302 302 292 290 287 284 294 293 268 264 268 274 278 276 281 287 279 260 245
261 262 263 264 264 264 264 263 265 266 265 264 266 270 274 279 282 286 291 294 291 291 289 282 276 273 269 262 258 253 252 255 256 257 259 259 260 262 264 265 266 266 264 256 250 253 260 271 278 277 271 264 259 263 269 268 269 269 270 272 272 273 270 271 282 292 296 300 298 290 282 280 279 284 294 301 284 256 254 257 261 264 269 275 275 252 227 216
260 260 260 259 260 261 262 263 265 264 264 266 268 272 275 280 286 290 296 296 289 289 287 269 256 254 257 255 249 244 243 251 254 251 252 254 254 255 256 257 261 263 259 251 248 255 264 270 270 264 257 255 259 273 281 274 266 262 268 272 271 274 276 281 290 293 295 298 295 286 274 271 273 285 301 295 245 242 246 246 249 256 263 266 256 231 223 236
259 260 260 260 259 260 260 261 262 260 263 267 267 271 275 279 284 289 295 288 277 291 275 248 238 237 238 229 226 223 221 235 243 236 238 241 243 244 243 245 248 253 257 250 245 256 270 271 268 269 270 270 275 282 281 272 265 267 274 275 274 277 277 283 290 293 298 298 289 285 267 253 271 293 305 261 217 232 238 238 246 255 258 257 243 228 236 262
258 257 257 257 257 258 258 257 258 257 260 263 265 269 271 275 278 273 256 238 248 258 257 246 233 235 228 213 212 223 225 231 233 229 233 231 229 228 227 232 234 242 256 261 257 261 269 273 278 280 279 282 286 286 278 271 271 276 282 281 278 276 277 287 292 292 296 282 274 281 257 233 277 300 286 222 224 233 234 234 240 253 255 250 240 235 247 267
253 251 248 249 251 254 253 251 252 254 256 259 262 264 263 265 261 241 216 225 235 246 252 243 230 231 221 211 221 238 232 232 234 237 239 234 230 225 221 224 230 245 259 267 272 274 274 274 274 276 281 288 287 284 279 276 279 281 283 282 280 283 288 292 287 285 290 262 275 288 265 235 267 321 264 228 241 239 234 232 236 252 255 246 242 244 253 267
247 246 245 247 249 251 251 250 250 251 253 254 256 254 252 251 237 217 215 234 241 252 246 230 223 221 214 214 226 236 234 237 239 239 239 235 235 233 232 237 247 263 272 276 281 282 276 274 276 278 281 283 282 281 278 276 277 277 278 281 285 297 302 281 265 262 238 266 283 298 266 228 221 249 243 250 284 269 255 250 253 261 257 244 241 248 262 278
242 242 243 245 248 249 250 253 252 251 251 248 245 241 238 235 226 217 214 235 249 248 233 224 221 220 220 225 236 246 247 244 234 231 231 232 238 243 246 255 267 277 281 283 285 281 277 278 284 285 281 281 282 278 275 275 275 274 272 275 281 307 309 241 220 219 220 247 273 294 256 222 226 241 255 267 275 269 263 262 263 262 251 240 244 262 279 291
245 246 247 248 251 253 250 249 250 251 250 241 234 230 226 225 228 220 216 224 236 233 228 228 224 224 228 231 239 246 242 236 229 225 229 240 254 261 259 265 274 277 275 276 278 281 283 281 279 279 278 278 275 271 271 271 270 267 263 260 252 250 300 246 240 248 238 243 278 301 287 252 253 264 273 269 261 258 258 260 262 257 248 248 263 276 283 287
256 257 254 251 251 251 249 247 247 251 252 243 236 231 224 223 235 231 226 229 231 231 230 224 222 225 225 218 217 223 224 229 234 234 245 261 269 270 269 270 275 277 277 279 279 276 277 278 277 273 270 269 266 264 264 260 257 256 258 258 252 247 243 247 256 262 270 281 295 296 278 256 272 281 283 270 260 260 260 260 261 257 255 265 273 276 278 278
257 257 250 243 240 240 243 246 248 247 246 244 239 233 227 228 235 240 237 227 224 232 235 222 220 223 216 209 210 216 223 235 249 252 258 264 267 269 269 270 271 270 268 266 268 268 265 272 278 270 259 256 255 249 239 241 248 255 257 252 251 253 251 253 263 270 282 292 285 272 260 261 273 276 274 272 271 271 268 263 260 256 260 269 273 274 276 277
246 244 238 235 237 241 245 248 249 246 243 242 238 235 238 241 241 242 243 231 221 227 232 229 230 237 242 241 239 241 245 248 254 256 258 262 265 266 265 264 261 257 251 246 251 268 269 270 271 260 244 238 240 239 230 231 237 243 249 252 257 263 258 256 266 271 273 279 267 261 263 268 275 276 271 270 272 273 270 265 262 260 263 267 270 273 275 277
239 236 237 238 240 242 245 249 250 247 244 240 239 242 249 251 247 239 237 233 218 215 227 233 232 236 246 250 249 250 248 247 250 252 256 260 264 265 261 255 250 246 244 247 256 262 257 257 256 247 243 241 242 245 241 237 242 248 252 260 268 269 255 251 257 265 259 255 256 256 261 271 275 271 269 271 275 274 270 268 267 266 266 266 267 271 274 275
239 239 239 239 241 242 243 246 247 245 241 237 240 246 250 252 247 235 229 229 214 208 219 223 221 225 237 246 253 251 238 236 240 246 254 250 245 256 256 244 242 242 243 247 250 248 246 254 256 251 255 259 252 254 252 243 245 252 254 260 264 262 251 244 240 242 248 247 251 249 255 265 266 265 272 277 281 281 278 276 273 270 270 268 268 272 274 274
242 241 240 239 240 241 241 244 246 242 235 234 241 245 245 246 246 238 235 235 225 215 217 222 231 244 250 247 250 251 243 240 234 232 243 241 239 254 253 237 236 240 243 244 241 235 236 248 257 253 254 258 252 253 256 255 255 257 258 258 255 253 253 248 244 249 255 256 258 251 250 258 261 264 269 272 279 289 286 283 280 277 277 276 277 280 278 273
242 241 241 239 238 241 242 243 243 239 234 237 240 240 241 245 246 243 241 239 235 233 235 241 249 255 252 244 239 240 244 249 246 239 238 240 242 249 247 237 236 238 238 234 232 234 236 240 249 253 256 261 261 261 267 274 275 267 261 255 251 250 252 253 251 251 254 258 266 261 251 253 259 263 265 269 278 285 286 290 293 292 289 285 280 278 275 272
236 238 242 240 239 243 242 239 240 239 238 241 241 240 242 248 251 249 247 245 245 247 251 255 256 256 254 248 244 247 252 257 257 252 248 246 244 245 246 244 242 240 236 233 235 241 244 242 245 252 258 263 265 267 271 271 265 262 263 259 258 255 249 251 253 250 251 253 252 256 258 254 257 260 264 273 283 285 290 296 297 294 290 285 279 272 268 265
229 237 244 243 240 243 242 242 245 245 243 245 247 248 249 252 254 255 254 253 253 255 257 257 257 256 256 254 253 257 260 260 257 253 250 251 249 249 249 249 250 249 247 248 250 251 253 254 255 257 261 264 267 268 265 259 252 256 261 264 268 264 252 250 254 255 257 260 259 259 257 256 259 262 267 277 283 286 290 296 298 294 287 282 278 272 268 266
234 240 245 244 240 240 242 245 247 246 247 252 254 254 253 254 258 261 261 259 258 257 257 257 258 259 258 259 259 258 257 256 254 252 252 254 255 252 250 250 251 251 251 253 256 257 256 257 260 264 266 268 269 269 268 266 262 259 259 261 263 263 258 254 257 266 266 263 264 263 257 257 262 267 276 283 286 289 290 292 295 295 289 282 277 275 277 279
243 246 249 247 245 243 243 244 245 246 251 255 255 254 255 257 260 261 262 261 260 260 260 262 262 261 260 260 258 254 251 251 253 255 255 254 252 251 250 250 249 248 250 253 254 255 254 247 249 261 273 275 274 275 275 268 254 244 243 247 249 252 256 259 267 275 272 257 259 258 259 274 276 282 286 285 286 288 288 289 290 290 287 284 284 285 288 291
251 251 251 251 250 249 247 248 249 250 254 256 256 257 259 259 261 261 261 261 261 261 262 262 260 258 256 255 252 251 249 246 246 248 248 244 240 244 248 248 248 249 250 251 250 252 253 248 248 250 249 256 261 266 265 253 248 248 243 245 244 246 258 274 282 280 273 269 268 265 272 278 280 283 284 285 288 290 289 289 288 287 286 287 288 290 294 296
252 250 250 251 250 250 252 254 252 250 251 251 251 254 256 256 258 260 259 258 258 256 256 256 255 254 253 250 248 248 247 246 245 244 244 240 237 243 248 250 253 253 252 253 252 253 255 255 256 254 249 249 254 260 263 267 277 280 274 269 266 264 273 283 280 268 269 279 279 273 275 278 279 280 282 284 287 289 291 291 290 290 290 290 291 292 294 296
253 252 252 251 248 247 250 251 248 246 247 245 245 248 250 251 252 254 255 254 252 250 250 250 251 251 250 249 248 248 247 248 247 248 250 250 248 250 254 257 259 258 257 257 255 256 256 257 259 258 254 256 259 263 267 270 274 277 275 274 273 274 277 277 270 267 273 279 276 275 278 280 281 282 282 283 282 282 287 289 290 291 291 291 293 294 293 293
252 252 253 251 248 246 248 250 251 249 245 241 240 243 246 247 247 248 249 250 249 247 246 246 248 249 250 250 250 249 249 248 246 247 250 253 254 254 255 258 260 261 261 260 259 258 256 257 261 261 259 260 261 262 266 268 270 272 271 271 271 272 272 271 270 273 275 270 270 276 279 279 280 282 282 283 283 283 284 286 287 288 288 289 291 290 288 287
249 248 247 246 246 246 248 252 254 250 244 239 238 240 243 243 243 244 246 246 245 244 243 244 247 249 250 249 248 247 247 245 244 244 243 246 250 250 251 252 255 260 262 262 261 260 258 262 266 265 263 264 265 266 268 269 269 270 269 269 270 271 272 272 274 275 273 271 272 276 276 275 277 280 281 282 283 284 285 286 286 285 285 285 285 284 283 284
243 242 240 240 242 245 246 246 246 245 242 237 236 239 241 240 240 241 243 243 244 245 245 246 248 250 250 248 245 244 243 243 244 245 245 246 246 245 246 245 247 254 259 263 264 259 257 262 265 264 265 268 270 273 273 272 273 273 272 272 272 272 273 274 274 274 275 275 275 275 274 275 277 279 281 283 284 284 285 285 283 282 282 281 280 280 282 286
238 238 236 236 239 241 243 243 242 242 240 236 235 237 238 238 238 238 240 242 245 248 249 250 252 253 251 247 243 241 240 240 241 244 247 249 247 244 245 247 249 252 256 260 263 263 263 265 267 270 270 271 275 280 280 280 279 274 272 274 275 275 275 276 276 276 276 277 277 277 276 277 279 280 280 280 280 280 280 280 280 281 281 281 280 282 286 288
234 233 233 234 236 238 240 241 239 239 239 238 238 238 238 238 239 238 238 240 241 244 248 251 252 252 249 244 242 242 242 241 242 242 244 247 248 246 247 251 254 256 258 261 264 267 268 268 269 268 264 269 278 283 284 286 282 270 272 278 282 281 281 281 280 279 278 276 275 275 275 278 279 278 277 277 277 277 278 280 281 282 283 284 285 287 289 288
Height
3172 3172 3172 3172 3172 3173 3173 3173 3173 3173 3173 3173 3173 3173 3173 3173 3173 3173 3172 3172 3172 3172 3172 3172 3172 3172 3172 3171 3172 3172 3171 3171 3171 3171 3171 3171 3171 3171 3171 3171 3171 3171 3170 3170 3170 3170 3170 3170 3170 3169 3169 3169 3169 3169 3169 3169 3169 3168 3168 3168 3168 3169 3170 3171 3172 3171 3170 3169 3169 3169 3167 3165 3165 3165 3163 3161 3162 3163 3163 3164 3164 3163 3162 3161 3161 3160 3158 3158
3171 3171 3171 3171 3172 3172 3172 3172 3172 3172 3172 3172 3172 3172 3172 3172 3172 3172 3172 3171 3171 3171 3171 3171 3171 3170 3170 3170 3170 3170 3170 3170 3170 3170 3170 3170 3170 3170 3170 3170 3170 3170 3169 3169 3169 3169 3169 3169 3169 3168 3168 3168 3168 3168 3168 3168 3168 3168 3167 3167 3167 3168 3169 3170 3170 3170 3169 3167 3167 3167 3166 3165 3164 3164 3162 3160 3160 3160 3161 3162 3162 3161 3160 3159 3158 3157 3155 3155
3170 3170 3170 3170 3171 3171 3171 3171 3171 3171 3171 3171 3171 3171 3171 3171 3170 3170 3170 3170 3170 3170 3170 3170 3170 3169 3169 3169 3169 3169 3169 3169 3169 3169 3168 3168 3169 3169 3169 3169 3169 3168 3168 3168 3168 3168 3167 3167 3167 3167 3167 3167 3166 3166 3167 3166 3167 3167 3166 3166 3167 3167 3168 3168 3168 3168 3167 3165 3164 3164 3164 3163 3163 3162 3160 3159 3158 3158 3158 3160 3159 3158 3158 3157 3156 3155 3153 3152
3169 3169 3169 3169 3169 3169 3170 3170 3170 3170 3170 3170 3170 3170 3170 3170 3170 3169 3169 3169 3169 3169 3169 3169 3168 3168 3168 3168 3168 3168 3168 3168 3167 3168 3167 3167 3168 3167 3168 3168 3167 3167 3167 3167 3167 3166 3166 3166 3166 3166 3165 3166 3165 3164 3165 3165 3165 3165 3164 3164 3166 3166 3166 3166 3167 3166 3164 3163 3162 3162 3162 3161 3161 3160 3159 3157 3155 3154 3156 3157 3157 3156 3155 3154 3153 3153 3152 3151
3168 3168 3168 3168 3168 3168 3168 3168 3169 3169 3169 3169 3169 3169 3169 3169 3169 3168 3168 3168 3168 3168 3167 3167 3167 3167 3167 3167 3167 3167 3167 3167 3166 3166 3166 3166 3166 3166 3166 3166 3166 3166 3165 3165 3165 3165 3165 3165 3165 3165 3164 3165 3165 3163 3163 3163 3163 3163 3163 3163 3164 3164 3163 3163 3164 3163 3162 3162 3161 3160 3160 3159 3159 3158 3158 3156 3152 3152 3154 3154 3155 3154 3153 3151 3150 3150 3150 3149
3166 3166 3166 3166 3167 3167 3167 3167 3167 3167 3167 3167 3167 3167 3167 3167 3167 3167 3167 3167 3167 3167 3166 3166 3166 3166 3166 3165 3166 3165 3166 3166 3166 3165 3165 3164 3164 3165 3164 3164 3164 3164 3164 3164 3164 3164 3164 3164 3164 3164 3163 3163 3164 3163 3163 3163 3162 3160 3161 3162 3162 3162 3161 3161 3162 3161 3160 3160 3159 3158 3157 3157 3156 3156 3156 3154 3151 3151 3151 3151 3151 3151 3151 3149 3148 3147 3147 3147
3164 3165 3165 3165 3165 3165 3165 3165 3165 3165 3165 3166 3166 3166 3166 3166 3166 3166 3166 3166 3166 3165 3165 3165 3165 3165 3164 3164 3164 3164 3164 3166 3165 3164 3164 3163 3163 3163 3163 3163 3163 3163 3163 3163 3163 3163 3162 3162 3162 3162 3161 3161 3162 3162 3162 3162 3162 3159 3158 3160 3160 3160 3160 3160 3159 3159 3158 3157 3157 3156 3155 3154 3154 3153 3152 3152 3151 3151 3149 3148 3148 3148 3148 3147 3146 3145 3144 3145
3162 3163 3163 3163 3163 3163 3163 3163 3163 3164 3164 3164 3164 3164 3164 3164 3164 3164 3164 3164 3164 3164 3164 3163 3163 3163 3163 3162 3162 3162 3162 3164 3164 3163 3162 3162 3161 3161 3161 3161 3161 3161 3161 3161 3161 3161 3161 3161 3161 3160 3160 3160 3160 3160 3160 3160 3160 3158 3157 3157 3157 3157 3157 3158 3157 3156 3155 3155 3154 3153 3152 3152 3152 3150 3148 3149 3150 3149 3147 3146 3146 3146 3145 3145 3144 3143 3142 3141
3160 3160 3160 3161 3161 3161 3161 3161 3161 3161 3162 3162 3162 3162 3162 3162 3162 3162 3162 3162 3162 3162 3162 3161 3161 3161 3161 3161 3160 3160 3161 3162 3162 3162 3161 3160 3160 3160 3160 3159 3159 3159 3160 3160 3160 3159 3159 3159 3159 3158 3158 3159 3159 3158 3158 3158 3157 3156 3156 3156 3154 3154 3155 3155 3154 3153 3153 3152 3151 3150 3150 3150 3150 3148 3145 3147 3147 3145 3144 3143 3142 3142 3142 3142 3141 3140 3140 3139
3158 3158 3158 3158 3158 3158 3159 3159 3159 3159 3159 3159 3160 3160 3160 3160 3160 3160 3160 3160 3160 3160 3160 3159 3159 3159 3159 3159 3158 3158 3159 3160 3160 3160 3159 3159 3159 3158 3158 3158 3157 3157 3157 3157 3158 3157 3157 3157 3156 3156 3156 3157 3156 3156 3156 3155 3154 3154 3154 3154 3153 3152 3152 3152 3151 3151 3150 3149 3148 3147 3148 3148 3148 3146 3144 3145 3144 3142 3141 3140 3139 3138 3138 3139 3139 3138 3137 3136
3155 3156 3156 3156 3156 3156 3156 3156 3157 3157 3157 3157 3157 3158 3158 3158 3158 3158 3158 3158 3158 3158 3158 3157 3157 3157 3157 3157 3156 3156 3157 3157 3157 3157 3157 3157 3157 3156 3156 3156 3156 3155 3155 3155 3155 3155 3155 3155 3155 3155 3155 3154 3154 3154 3154 3152 3152 3152 3152 3150 3151 3150 3149 3149 3148 3148 3147 3145 3145 3145 3145 3146 3146 3144 3142 3142 3142 3140 3138 3137 3136 3135 3134 3134 3134 3135 3134 3133
3153 3153 3153 3153 3154 3154 3154 3154 3154 3154 3154 3155 3155 3155 3155 3155 3155 3156 3156 3156 3156 3156 3155 3155 3155 3154 3154 3154 3154 3155 3155 3154 3154 3154 3154 3154 3154 3154 3154 3154 3154 3153 3153 3153 3153 3153 3153 3153 3153 3153 3153 3152 3152 3152 3151 3150 3149 3149 3149 3147 3147 3147 3146 3147 3146 3145 3144 3142 3142 3142 3142 3143 3143 3142 3141 3140 3139 3138 3137 3135 3134 3134 3132 3131 3130 3131 3130 3129
3150 3151 3151 3151 3151 3151 3151 3151 3151 3151 3152 3152 3152 3152 3152 3153 3153 3153 3153 3153 3153 3153 3153 3153 3152 3152 3151 3151 3152 3152 3152 3152 3152 3152 3152 3152 3152 3152 3151 3151 3151 3151 3151 3151 3150 3151 3151 3151 3151 3151 3151 3150 3150 3150 3148 3148 3147 3147 3147 3145 3144 3144 3143 3144 3143 3142 3143 3141 3141 3142 3141 3140 3141 3141 3140 3139 3138 3136 3135 3133 3133 3132 3130 3129 3128 3127 3127 3126
3148 3148 3148 3149 3149 3149 3149 3149 3149 3149 3149 3149 3149 3150 3150 3150 3150 3150 3150 3150 3150 3150 3150 3150 3149 3149 3148 3149 3150 3149 3150 3150 3149 3149 3149 3149 3149 3149 3149 3149 3149 3148 3148 3148 3149 3149 3149 3149 3149 3149 3149 3149 3149 3148 3147 3146 3146 3145 3145 3143 3143 3142 3140 3142 3142 3141 3141 3139 3140 3140 3138 3137 3138 3138 3138 3137 3136 3134 3132 3131 3130 3129 3128 3127 3125 3124 3124 3124
3145 3146 3146 3146 3146 3146 3146 3146 3146 3146 3147 3147 3147 3147 3147 3147 3147 3147 3147 3147 3148 3147 3147 3147 3147 3146 3145 3147 3147 3146 3146 3147 3147 3147 3147 3147 3147 3147 3147 3147 3146 3146 3146 3146 3147 3146 3147 3147 3147 3147 3148 3148 3147 3146 3145 3144 3144 3145 3143 3141 3142 3141 3139 3141 3142 3141 3140 3137 3137 3137 3135 3134 3135 3136 3136 3135 3133 3132 3130 3129 3129 3127 3126 3124 3123 3122 3121 3119
3142 3143 3143 3143 3144 3144 3144 3144 3144 3144 3144 3144 3144 3144 3144 3144 3144 3144 3144 3145 3145 3145 3144 3144 3144 3143 3143 3144 3145 3144 3144 3144 3144 3144 3144 3144 3144 3144 3145 3144 3144 3144 3144 3144 3144 3144 3145 3144 3145 3146 3146 3147 3146 3144 3143 3143 3143 3144 3143 3140 3141 3141 3140 3141 3141 3140 3139 3137 3135 3134 3132 3131 3131 3132 3133 3132 3130 3129 3126 3125 3125 3124 3123 3121 3120 3119 3116 3113
3140 3140 3141 3141 3141 3141 3141 3141 3141 3141 3141 3141 3141 3141 3141 3141 3141 3141 3141 3141 3142 3142 3141 3141 3142 3141 3140 3141 3141 3141 3141 3141 3141 3142 3141 3141 3141 3141 3141 3141 3141 3142 3142 3142 3142 3142 3143 3142 3142 3143 3144 3145 3144 3143 3142 3141 3141 3142 3142 3140 3140 3140 3140 3140 3140 3139 3138 3136 3135 3132 3129 3128 3128 3128 3129 3129 3128 3126 3124 3122 3121 3120 3119 3118 3117 3115 3111 3108
3137 3137 3138 3138 3138 3138 3138 3138 3138 3138 3138 3138 3138 3138 3138 3137 3138 3138 3138 3138 3139 3139 3138 3138 3139 3138 3138 3138 3138 3138 3139 3139 3139 3139 3139 3139 3138 3138 3138 3138 3139 3139 3139 3140 3139 3139 3140 3139 3139 3140 3141 3142 3141 3141 3140 3139 3140 3140 3140 3139 3138 3138 3138 3138 3137 3137 3136 3134 3133 3131 3128 3127 3127 3127 3126 3126 3126 3123 3121 3119 3118 3117 3117 3115 3113 3110 3108 3107
3134 3134 3135 3135 3134 3134 3135 3135 3135 3135 3135 3135 3135 3135 3134 3134 3135 3134 3134 3135 3135 3136 3135 3135 3136 3136 3135 3135 3136 3136 3136 3136 3136 3136 3136 3136 3136 3136 3136 3136 3136 3136 3135 3136 3136 3136 3138 3136 3135 3137 3139 3139 3139 3138 3137 3137 3138 3138 3137 3137 3136 3135 3135 3135 3134 3134 3133 3131 3130 3129 3127 3125 3125 3124 3123 3123 3122 3120 3118 3117 3116 3115 3114 3112 3110 3109 3108 3107
3131 3131 3132 3131 3131 3131 3132 3132 3132 3132 3132 3132 3132 3132 3131 3131 3132 3130 3130 3132 3132 3133 3132 3131 3132 3133 3133 3132 3132 3134 3133 3133 3133 3133 3133 3133 3133 3132 3132 3132 3133 3133 3132 3133 3133 3132 3134 3133 3131 3134 3137 3137 3137 3136 3136 3136 3136 3135 3135 3134 3134 3133 3131 3131 3131 3131 3130 3128 3127 3126 3125 3123 3122 3121 3121 3120 3119 3118 3116 3115 3114 3113 3111 3110 3110 3109 3107 3105
3128 3128 3128 3128 3128 3128 3129 3129 3129 3129 3129 3129 3129 3129 3128 3129 3129 3127 3127 3128 3129 3129 3129 3129 3128 3128 3130 3129 3128 3131 3130 3129 3129 3129 3130 3130 3129 3129 3128 3129 3129 3129 3130 3131 3130 3129 3130 3129 3129 3132 3134 3134 3134 3134 3135 3134 3134 3134 3132 3131 3131 3131 3129 3128 3129 3129 3127 3126 3124 3124 3122 3121 3120 3119 3118 3118 3117 3116 3115 3113 3112 3110 3110 3109 3109 3107 3105 3103
3125 3125 3125 3126 3125 3125 3126 3126 3126 3126 3127 3127 3127 3126 3126 3126 3126 3124 3123 3123 3125 3126 3125 3126 3125 3124 3127 3125 3124 3127 3127 3126 3126 3125 3127 3126 3125 3126 3124 3126 3126 3127 3128 3128 3127 3127 3126 3126 3127 3129 3131 3131 3131 3131 3132 3131 3131 3131 3130 3129 3128 3128 3127 3126 3127 3126 3125 3123 3122 3121 3119 3118 3118 3117 3116 3116 3116 3115 3112 3110 3110 3110 3109 3108 3106 3104 3103 3102
3122 3122 3122 3122 3122 3122 3122 3122 3123 3124 3124 3124 3124 3124 3124 3123 3123 3122 3120 3118 3119 3123 3122 3122 3122 3121 3123 3121 3121 3123 3122 3122 3122 3120 3122 3122 3121 3123 3122 3122 3124 3125 3125 3124 3125 3125 3123 3124 3126 3126 3127 3127 3128 3129 3129 3128 3127 3127 3127 3127 3125 3125 3126 3125 3125 3124 3122 3121 3120 3119 3116 3114 3116 3115 3114 3115 3115 3114 3109 3107 3109 3110 3108 3106 3104 3102 3101 3101
3118 3119 3119 3119 3119 3119 3119 3120 3120 3121 3121 3121 3121 3121 3121 3121 3121 3119 3119 3115 3113 3116 3119 3118 3118 3117 3118 3117 3118 3119 3118 3118 3117 3115 3117 3118 3117 3120 3120 3120 3122 3123 3123 3122 3122 3122 3120 3122 3124 3124 3124 3125 3125 3125 3125 3125 3124 3124 3124 3124 3123 3123 3124 3123 3122 3121 3120 3119 3118 3117 3113 3111 3113 3114 3113 3113 3114 3112 3106 3105 3108 3107 3105 3104 3102 3102 3101 3100
3115 3116 3116 3116 3116 3116 3117 3116 3117 3118 3118 3118 3119 3119 3119 3119 3118 3117 3117 3114 3108 3110 3114 3115 3113 3113 3113 3112 3113 3115 3113 3112 3112 3111 3114 3116 3115 3116 3117 3118 3118 3119 3121 3121 3121 3119 3119 3120 3121 3122 3122 3122 3122 3122 3123 3122 3121 3121 3121 3122 3121 3121 3121 3121 3120 3119 3117 3117 3116 3116 3112 3107 3108 3111 3110 3110 3111 3108 3103 3103 3106 3104 3102 3102 3101 3100 3100 3100
3112 3112 3112 3113 3113 3113 3113 3113 3115 3116 3114 3115 3117 3117 3117 3116 3116 3116 3116 3113 3106 3105 3109 3110 3110 3108 3108 3108 3108 3110 3110 3108 3109 3109 3110 3112 3112 3112 3114 3115 3115 3116 3118 3119 3119 3117 3117 3118 3118 3119 3119 3119 3120 3120 3121 3120 3119 3119 3119 3120 3120 3119 3119 3119 3119 3118 3116 3115 3114 3115 3114 3106 3102 3105 3105 3105 3106 3103 3099 3101 3102 3101 3100 3099 3099 3099 3098 3099
3108 3108 3109 3109 3109 3110 3110 3110 3112 3112 3111 3113 3114 3114 3115 3114 3115 3115 3115 3113 3106 3102 3105 3105 3105 3105 3104 3105 3105 3106 3107 3106 3106 3107 3107 3109 3109 3110 3111 3111 3112 3114 3115 3116 3116 3115 3115 3116 3116 3117 3117 3118 3118 3118 3119 3119 3118 3117 3117 3118 3118 3118 3118 3117 3117 3116 3114 3112 3110 3111 3113 3106 3097 3098 3101 3101 3101 3098 3096 3098 3099 3098 3098 3096 3096 3097 3097 3098
3104 3104 3105 3105 3106 3107 3107 3108 3108 3108 3109 3110 3111 3112 3112 3113 3114 3114 3116 3114 3105 3101 3103 3103 3103 3103 3103 3103 3103 3104 3105 3105 3105 3105 3106 3107 3107 3108 3109 3109 3110 3110 3111 3112 3113 3112 3113 3114 3114 3115 3116 3116 3115 3116 3117 3117 3116 3115 3115 3116 3115 3116 3115 3115 3114 3113 3112 3110 3105 3105 3110 3106 3096 3094 3097 3097 3097 3095 3093 3095 3096 3096 3095 3094 3094 3095 3096 3096
3100 3100 3101 3102 3103 3104 3104 3105 3105 3105 3107 3107 3109 3110 3110 3111 3112 3113 3116 3113 3103 3099 3102 3102 3102 3102 3101 3102 3102 3103 3104 3104 3104 3104 3105 3105 3106 3107 3107 3107 3108 3108 3109 3109 3109 3110 3110 3111 3112 3112 3112 3112 3112 3113 3114 3114 3114 3113 3113 3113 3113 3113 3113 3113 3112 3110 3111 3108 3102 3102 3106 3103 3095 3092 3094 3095 3095 3093 3092 3093 3094 3093 3092 3092 3093 3093 3093 3094
3096 3096 3097 3098 3099 3100 3101 3102 3102 3102 3104 3105 3106 3107 3107 3109 3110 3112 3112 3107 3100 3099 3101 3101 3101 3101 3100 3101 3101 3102 3103 3103 3103 3104 3104 3104 3105 3106 3106 3106 3107 3107 3107 3107 3107 3108 3108 3108 3109 3109 3109 3110 3110 3110 3111 3111 3111 3111 3110 3110 3110 3110 3109 3110 3109 3108 3109 3104 3098 3099 3101 3101 3097 3093 3093 3094 3093 3092 3091 3092 3092 3091 3090 3090 3091 3091 3091 3092
3091 3091 3093 3094 3096 3097 3097 3098 3099 3099 3100 3102 3103 3104 3105 3106 3108 3108 3104 3099 3098 3099 3098 3098 3099 3099 3099 3099 3099 3100 3101 3102 3102 3103 3103 3103 3104 3104 3105 3105 3106 3106 3106 3105 3105 3105 3105 3104 3105 3106 3107 3107 3107 3108 3108 3108 3108 3108 3108 3107 3107 3107 3106 3107 3107 3108 3108 3101 3097 3098 3097 3098 3096 3093 3093 3093 3093 3092 3092 3091 3090 3090 3089 3088 3089 3090 3089 3089
3087 3088 3089 3091 3092 3093 3094 3095 3096 3096 3097 3098 3100 3101 3102 3104 3103 3100 3097 3098 3099 3097 3095 3097 3097 3097 3097 3097 3097 3098 3099 3100 3101 3101 3101 3102 3102 3103 3103 3104 3104 3105 3104 3103 3103 3102 3102 3102 3103 3104 3104 3105 3105 3105 3105 3105 3105 3105 3105 3106 3106 3105 3105 3106 3105 3105 3104 3099 3097 3097 3097 3095 3093 3091 3093 3093 3092 3090 3090 3090 3089 3088 3088 3086 3086 3087 3086 3086
3084 3085 3086 3087 3089 3090 3091 3092 3093 3094 3094 3095 3097 3098 3100 3100 3096 3093 3095 3098 3097 3094 3094 3095 3095 3095 3095 3095 3096 3096 3097 3099 3099 3100 3100 3100 3101 3101 3102 3102 3103 3103 3103 3102 3102 3101 3100 3100 3101 3101 3101 3102 3102 3102 3102 3101 3102 3102 3102 3103 3104 3104 3105 3105 3102 3100 3099 3098 3097 3097 3097 3094 3090 3090 3090 3089 3088 3087 3087 3088 3087 3087 3086 3085 3085 3085 3085 3085
3080 3081 3083 3083 3085 3086 3087 3089 3090 3091 3092 3093 3094 3096 3097 3095 3091 3091 3094 3095 3095 3094 3094 3094 3094 3094 3094 3094 3094 3095 3096 3097 3097 3098 3098 3098 3098 3098 3099 3100 3101 3101 3101 3101 3100 3100 3099 3097 3098 3099 3099 3099 3099 3100 3100 3099 3099 3100 3100 3101 3101 3101 3103 3102 3099 3098 3097 3096 3096 3097 3096 3091 3087 3088 3087 3086 3086 3085 3085 3086 3086 3085 3084 3083 3083 3084 3084 3084
3076 3077 3079 3080 3082 3083 3085 3086 3087 3089 3090 3091 3092 3093 3091 3088 3088 3089 3091 3092 3093 3093 3093 3093 3093 3093 3093 3093 3093 3093 3094 3095 3095 3095 3096 3096 3096 3096 3097 3098 3098 3099 3099 3099 3098 3098 3097 3095 3095 3096 3096 3096 3097 3098 3098 3097 3098 3097 3097 3098 3097 3098 3099 3098 3096 3096 3096 3095 3094 3093 3090 3086 3086 3086 3084 3084 3084 3083 3084 3083 3083 3082 3082 3081 3081 3081 3081 3081
3073 3074 3076 3077 3079 3081 3082 3083 3084 3086 3087 3088 3089 3086 3082 3083 3086 3087 3088 3089 3091 3091 3091 3092 3091 3091 3091 3091 3091 3091 3092 3093 3093 3093 3093 3093 3094 3093 3094 3096 3096 3096 3096 3096 3096 3096 3095 3093 3093 3093 3093 3094 3095 3095 3096 3096 3096 3095 3095 3095 3094 3096 3097 3096 3094 3094 3095 3093 3090 3087 3084 3082 3084 3083 3080 3079 3079 3080 3080 3079 3080 3080 3079 3079 3078 3078 3078 3078
3070 3071 3073 3074 3076 3077 3078 3079 3082 3083 3084 3085 3083 3079 3077 3079 3082 3084 3085 3085 3087 3088 3088 3089 3089 3089 3089 3089 3089 3089 3089 3090 3090 3090 3090 3091 3091 3090 3091 3093 3093 3093 3094 3094 3094 3094 3093 3091 3091 3091 3091 3092 3093 3093 3093 3093 3094 3093 3093 3092 3093 3094 3094 3094 3093 3092 3093 3089 3084 3083 3081 3080 3081 3079 3076 3075 3075 3075 3076 3077 3077 3077 3077 3077 3076 3075 3075 3074
3067 3068 3069 3071 3072 3073 3075 3076 3078 3079 3081 3080 3076 3074 3075 3076 3078 3081 3082 3082 3084 3085 3085 3086 3086 3086 3087 3087 3087 3086 3086 3087 3087 3087 3088 3089 3089 3087 3089 3090 3090 3090 3091 3091 3091 3091 3090 3089 3088 3088 3088 3089 3090 3090 3090 3090 3091 3091 3090 3091 3092 3091 3091 3091 3091 3090 3089 3085 3080 3079 3078 3077 3077 3075 3074 3073 3072 3073 3074 3075 3075 3075 3075 3075 3074 3073 3072 3071
3063 3064 3065 3067 3069 3070 3071 3073 3074 3075 3076 3074 3070 3071 3072 3072 3074 3078 3079 3080 3082 3082 3081 3082 3082 3083 3085 3085 3085 3084 3084 3084 3085 3086 3086 3086 3086 3085 3086 3087 3086 3087 3087 3088 3088 3087 3088 3087 3085 3085 3086 3086 3086 3087 3086 3087 3088 3088 3088 3088 3089 3088 3087 3087 3087 3085 3084 3080 3077 3077 3075 3074 3074 3073 3071 3070 3070 3071 3072 3073 3073 3073 3073 3073 3072 3071 3070 3069
3059 3060 3061 3064 3065 3066 3068 3069 3070 3070 3069 3067 3066 3067 3068 3069 3072 3074 3075 3077 3078 3078 3078 3079 3080 3081 3081 3082 3083 3082 3082 3082 3083 3084 3084 3084 3084 3083 3084 3083 3083 3084 3084 3085 3085 3084 3085 3085 3083 3082 3083 3083 3083 3083 3084 3085 3086 3085 3084 3084 3085 3085 3084 3084 3082 3081 3080 3077 3076 3075 3072 3070 3072 3071 3068 3067 3068 3069 3069 3070 3070 3070 3070 3069 3069 3068 3068 3066
3055 3055 3057 3060 3062 3062 3064 3064 3064 3064 3064 3063 3063 3064 3066 3068 3069 3071 3073 3074 3074 3074 3075 3076 3077 3077 3078 3078 3079 3079 3079 3079 3079 3080 3080 3080 3081 3081 3081 3081 3081 3082 3082 3082 3082 3081 3081 3081 3080 3080 3080 3079 3079 3081 3082 3083 3083 3082 3082 3081 3082 3082 3082 3081 3078 3076 3076 3074 3073 3072 3068 3066 3069 3069 3066 3066 3067 3066 3066 3065 3066 3066 3066 3065 3065 3065 3064 3063
3050 3050 3053 3057 3058 3059 3060 3059 3059 3060 3059 3059 3060 3063 3065 3065 3066 3068 3069 3070 3071 3071 3072 3072 3073 3073 3073 3074 3075 3075 3075 3075 3075 3076 3075 3075 3077 3078 3078 3078 3078 3079 3079 3079 3079 3079 3079 3078 3077 3077 3076 3076 3076 3078 3079 3079 3079 3080 3079 3079 3079 3079 3080 3078 3074 3073 3072 3070 3069 3068 3063 3062 3065 3066 3065 3065 3065 3064 3063 3063 3062 3063 3063 3062 3062 3061 3060 3059
3045 3047 3049 3052 3054 3055 3056 3055 3055 3055 3055 3056 3059 3060 3061 3062 3063 3064 3065 3066 3067 3068 3068 3068 3068 3069 3069 3070 3071 3072 3072 3071 3070 3070 3071 3072 3073 3074 3074 3074 3074 3075 3076 3076 3075 3075 3076 3075 3074 3073 3073 3073 3072 3073 3074 3074 3076 3075 3075 3076 3076 3075 3076 3074 3071 3070 3069 3066 3066 3064 3060 3059 3062 3064 3064 3063 3062 3062 3061 3061 3060 3060 3059 3059 3059 3057 3056 3055
3042 3043 3045 3047 3049 3051 3050 3049 3050 3050 3051 3053 3055 3056 3058 3059 3059 3060 3060 3061 3063 3063 3063 3063 3064 3064 3065 3066 3067 3067 3068 3068 3066 3066 3067 3068 3069 3069 3069 3070 3071 3071 3072 3072 3072 3072 3072 3072 3072 3072 3072 3071 3070 3070 3070 3070 3070 3070 3071 3072 3071 3071 3072 3070 3068 3067 3064 3062 3063 3061 3057 3057 3060 3060 3061 3061 3059 3059 3059 3058 3057 3056 3055 3054 3053 3052 3051 3049
3038 3039 3040 3042 3044 3044 3043 3044 3046 3047 3048 3050 3050 3052 3054 3054 3054 3056 3057 3057 3058 3059 3059 3059 3059 3060 3061 3062 3062 3062 3063 3064 3063 3063 3063 3064 3065 3065 3066 3066 3067 3067 3068 3069 3069 3069 3070 3069 3069 3070 3070 3070 3069 3068 3068 3068 3067 3067 3068 3068 3068 3068 3068 3066 3066 3064 3060 3057 3060 3059 3054 3054 3057 3058 3058 3058 3057 3056 3055 3054 3053 3052 3050 3049 3047 3046 3045 3043
3034 3034 3035 3037 3038 3038 3038 3040 3042 3042 3044 3046 3046 3047 3049 3048 3049 3051 3053 3053 3054 3055 3055 3054 3055 3056 3057 3058 3058 3058 3059 3060 3060 3060 3060 3061 3062 3062 3063 3063 3064 3065 3065 3065 3066 3066 3066 3066 3066 3066 3066 3066 3065 3064 3065 3066 3065 3065 3065 3065 3065 3064 3064 3063 3062 3059 3057 3056 3056 3055 3052 3051 3053 3055 3054 3055 3054 3052 3051 3050 3048 3047 3046 3044 3043 3042 3041 3039
3029 3029 3030 3032 3032 3032 3032 3034 3035 3036 3039 3041 3042 3042 3043 3044 3045 3047 3048 3049 3049 3050 3051 3050 3051 3052 3052 3053 3054 3054 3055 3056 3057 3057 3057 3058 3059 3059 3059 3060 3060 3061 3061 3061 3062 3063 3063 3062 3062 3062 3062 3062 3062 3061 3062 3063 3062 3062 3063 3061 3060 3060 3059 3058 3055 3054 3056 3055 3049 3049 3050 3048 3048 3050 3050 3050 3050 3049 3048 3047 3045 3043 3042 3040 3039 3038 3037 3035
3023 3023 3025 3026 3026 3025 3026 3028 3029 3031 3034 3036 3037 3037 3038 3039 3041 3042 3043 3044 3045 3046 3046 3046 3046 3047 3048 3050 3051 3051 3051 3052 3052 3053 3053 3054 3055 3056 3056 3056 3056 3056 3057 3057 3058 3059 3059 3058 3058 3059 3058 3059 3059 3058 3059 3059 3059 3059 3058 3057 3056 3055 3053 3052 3050 3051 3054 3051 3044 3045 3047 3043 3043 3045 3045 3045 3045 3044 3043 3042 3041 3040 3039 3037 3035 3033 3032 3030
3018 3018 3019 3020 3019 3020 3021 3024 3026 3027 3029 3032 3032 3032 3033 3034 3036 3038 3039 3040 3040 3041 3042 3042 3042 3044 3045 3046 3047 3047 3047 3048 3048 3049 3050 3051 3052 3052 3053 3053 3053 3052 3053 3053 3054 3055 3055 3054 3054 3055 3054 3054 3055 3054 3055 3056 3055 3054 3053 3052 3050 3048 3046 3047 3047 3047 3047 3045 3042 3042 3041 3038 3039 3041 3040 3040 3040 3038 3038 3037 3036 3035 3034 3033 3031 3028 3027 3026
3012 3012 3014 3014 3014 3015 3017 3019 3021 3022 3024 3027 3027 3027 3028 3030 3032 3034 3034 3035 3036 3036 3037 3038 3039 3041 3042 3042 3043 3043 3043 3044 3044 3045 3046 3047 3048 3049 3049 3050 3050 3049 3049 3049 3050 3052 3052 3051 3052 3052 3050 3049 3050 3050 3051 3052 3051 3049 3047 3045 3043 3041 3041 3042 3041 3041 3041 3039 3037 3037 3035 3033 3035 3036 3035 3035 3035 3033 3033 3031 3030 3029 3028 3027 3026 3025 3023 3021
3006 3007 3009 3010 3010 3012 3013 3015 3017 3018 3019 3021 3020 3021 3024 3025 3027 3030 3030 3031 3032 3032 3033 3034 3035 3037 3037 3038 3039 3039 3039 3040 3041 3042 3043 3044 3045 3045 3045 3046 3047 3046 3046 3047 3047 3048 3048 3048 3048 3049 3047 3045 3045 3046 3046 3047 3047 3045 3040 3036 3035 3036 3035 3035 3035 3036 3036 3034 3032 3032 3029 3028 3030 3031 3030 3030 3029 3028 3027 3026 3024 3023 3022 3021 3021 3021 3019 3017
3001 3003 3006 3006 3006 3008 3009 3010 3013 3013 3013 3014 3016 3018 3020 3021 3024 3027 3026 3026 3027 3028 3030 3031 3031 3032 3033 3033 3034 3034 3035 3037 3038 3039 3040 3040 3041 3042 3042 3043 3043 3043 3043 3044 3044 3044 3044 3043 3044 3046 3044 3040 3042 3043 3042 3044 3043 3036 3031 3029 3030 3031 3030 3029 3030 3031 3031 3030 3028 3026 3024 3024 3025 3025 3024 3023 3023 3022 3022 3021 3019 3018 3017 3016 3016 3015 3014 3012